Regional Weather Roundup
Issued by NWS

Home | Current Version | Previous Version | Text Only | Print | Product List | Glossary Off
Versions: 1 2 3 4 5 6 7 8 9 10 11 12 13 14 15 16 17 18 19 20 21 22 23 24 25 26 27 28 29 30 31 32 33 34 35 36 37 38 39 40 41 42 43 44 45 46 47 48 49 50

000
ASUS44 KMEG 280700
RWRTN
TENNESSEE HOURLY STATE WEATHER ROUNDUP
NATIONAL WEATHER SERVICE MEMPHIS TN
200 AM CDT TUE APR 28 2015

TNZ002-004-019-021-049-052-054-088>092-280800-
WEST TENNESSEE

CITY           SKY/WX    TMP DP  RH WIND       PRES   REMARKS
MEMPHIS INTL   PTCLDY    54  40  59 NE9       29.95F
NWS MEMPHIS      N/A     53 N/A N/A MISG        N/A
JACKSON        CLEAR     48  40  73 NE7       29.98F
DYERSBURG      CLEAR     54  32  43 NE13      30.01S
UNION CITY     CLEAR     48  32  53 NE8       30.00F
PARIS          CLEAR     45  39  81 NE8       30.00F
LEXINGTON      CLEAR     46  39  76 N6        29.96S
SAVANNAH       CLEAR     45  32  61 CALM      29.96F
$$

TNZ008-025-027-028-033-062-065-066-280800-
NORTH MIDDLE TENNESSEE

CITY           SKY/WX    TMP DP  RH WIND       PRES   REMARKS
NASHVILLE      PTCLDY    49  40  71 N9        29.98S
CLARKSVILLE    CLEAR     49  40  71 NE9       30.01F
COOKEVILLE     CLEAR     39  37  93 CALM      29.96S
CROSSVILLE     MOCLDY    45  35  68 N3        29.97F
$$

TNZ061-075-076-078-094-096-097-280800-
SOUTH MIDDLE TENNESSEE

CITY           SKY/WX    TMP DP  RH WIND       PRES   REMARKS
FAYETTEVILLE   CLEAR     46  37  71 NE7       29.93F
TULLAHOMA      CLEAR     48  37  66 CALM      29.95F
WINCHESTER     CLEAR     43  43 100 CALM      29.94F
SHELBYVILLE    CLEAR     43  43 100 CALM      29.96F
$$

TNZ017-018-042-046-047-280800-
NORTHEAST TENNESSEE

CITY           SKY/WX    TMP DP  RH WIND       PRES   REMARKS
TRI CITIES     CLEAR     39  36  89 CALM      29.97S
ELIZABETHTON   SUNNY     34  34 100 CALM      29.96F
$$

TNZ012-013-036-069-073-074-280800-
CENTRAL EAST TENNESSEE

CITY           SKY/WX    TMP DP  RH WIND       PRES   REMARKS
KNOXVILLE      PTCLDY    46  38  73 NE3       29.95F
OAK RIDGE      PTCLDY    45  40  82 CALM      29.97F
GATLINBURG     SUNNY     39  37  93 CALM      29.96F
$$

TNZ083-085-099-280800-
SOUTHEAST TENNESSEE

CITY           SKY/WX    TMP DP  RH WIND       PRES   REMARKS
CHATTANOOGA    PTCLDY    51  41  68 N10       29.93F
$$

SKY/WX REPORTED AS FAIR MEANS FEW OR NO CLOUDS BELOW
12 THOUSAND FEET.




USA.gov is the U.S. government's official web portal to all federal, state and local government web resources and services.